This demonstration page uses our WeatherBlox Daily Observations layout. Learn more.

Left ArrowRight Arrow

Hourly Observations for November 5, 2015

Temp ( °F °C ) Dew Point ( °F °C ) Humidity (%) Winds ( mph kmh ) Pressure ( in mb ) Visibility ( mi km ) Precip ( " mm )
12:53 am 00:53 Clear 62 16.7 60 15.6 93 93 S 5 7 29.83 1010 9 14 0.00 0.00
1:53 am 01:53 Clear with Mist and Fog 59 15 57 13.9 93 93 SSW 6 9 29.83 1010 4 6 0.00 0.00
2:53 am 02:53 Clear 57 13.9 54 12.2 90 90 WSW 8 13 29.83 1010 10 16 0.00 0.00
3:53 am 03:53 Mostly Cloudy with Fog 54 12.2 52 11.1 93 93 Calm 29.84 1011 0 0 0.00 0.00
4:03 am 04:03 Mostly Cloudy with Fog 54 12 52 11 94 94 Calm 29.91 1013 1 1 0.00 0.00
4:53 am 04:53 Mostly Cloudy with Fog 53 11.7 52 11.1 96 96 NW 5 7 29.85 1011 0 0 0.00 0.00
5:26 am 05:26 Mostly Cloudy with Mist and Fog 52 11 50 10 94 94 NW 5 7 29.91 1013 1 1 0.00 0.00
5:32 am 05:32 Partly Cloudy with Mist and Fog 52 11 50 10 94 94 NNW 5 7 29.94 1014 1 2 0.00 0.00
5:37 am 05:37 Mostly Cloudy with Mist and Fog 50 10 49 9.4 96 96 NW 7 11 29.97 1015 1 1 0.00 0.00
5:47 am 05:47 Mostly Clear with Mist and Fog 52 11 48 9 88 88 NNW 6 9 29.94 1014 1 2 0.00 0.00
5:51 am 05:51 Mostly Clear with Mist and Fog 50 10 48 9 94 94 NW 7 11 29.97 1015 3 5 0.00 0.00
5:53 am 05:53 Mostly Clear with Mist and Fog 50 10 49 9.4 96 96 NW 7 11 29.87 1012 4 6 0.00 0.00
6:53 am 06:53 Clear 50 10 48 8.9 93 93 Calm 29.90 1012 9 14 0.00 0.00
7:53 am 07:53 undefined 51 10.6 49 9.4 92 92 NW 8 13 29.91 1013 10 16 0.00 0.00
8:53 am 08:53 undefined 57 13.9 49 9.4 74 74 SSE 3 6 29.92 1013 10 16 0.00 0.00
9:53 am 09:53 Sunny 66 18.9 46 7.8 49 49 SW 7 11 29.93 1014 10 16 0.00 0.00
10:53 am 10:53 Sunny 71 21.7 41 5 34 34 WSW 13 20 29.92 1013 10 16 0.00 0.00
11:53 am 11:53 Sunny 74 23.3 41 5 31 31 SW 12 19 29.91 1013 10 16 0.00 0.00
12:53 pm 12:53 Sunny 76 24.4 39 3.9 26 26 WSW 16 26 29.90 1013 10 16 0.00 0.00
1:53 pm 13:53 Sunny with Light Rain 77 25 39 3.9 26 26 W 21 33 29.90 1013 10 16 0.00 0.03
2:53 pm 14:53 Sunny 75 23.9 38 3.3 26 26 W 18 30 29.92 1013 10 16 0.00 0.03
3:53 pm 15:53 Sunny 74 23.3 33 0.6 22 22 W 24 39 29.95 1014 10 16 0.00 0.00
4:53 pm 16:53 Sunny 72 22.2 28 -2.2 19 19 W 21 33 29.96 1014 10 16 0.00 0.00
5:53 pm 17:53 Sunny 68 20 30 -1.1 24 24 W 10 17 29.98 1015 10 16 0.00 0.00
6:53 pm 18:53 Clear 60 15.6 34 1.1 38 38 NW 9 15 30.02 1017 10 16 0.00 0.00
7:53 pm 19:53 Clear 57 13.9 31 -0.6 37 37 W 10 17 30.04 1017 10 16 0.00 0.00
8:53 pm 20:53 Clear 52 11.1 32 0 47 47 N 8 13 30.07 1018 10 16 0.00 0.00
9:53 pm 21:53 Clear 50 10 32 0 50 50 NNW 9 15 30.06 1018 10 16 0.00 0.00
10:53 pm 22:53 Clear 46 7.8 33 0.6 61 61 NNW 8 13 30.08 1019 10 16 0.00 0.00
11:53 pm 23:53 Clear 44 6.7 33 0.6 65 65 N 9 15 30.07 1018 10 16 0.00 0.00

Powered by AerisWeather